INTEGRAL (27540 NORAD) Tracking and Keplerian Element Data

This shows tracking and keplerian element data for the satellite.

Feedback or suggestion? Click here.




ElementValue
Catalog27540
NameINTEGRAL
Epoch Orbit2473
Epoch Day28.91036572
Epoch Year2025
RAAN10.4427
Inclination90.7903
Eccentricity0.8616023
Argument of Perigee275.438
Mean Anonmoly340.9906
Mean Motion0.37573084
Decay Rate4.5E-07
L11 27540U 02048A 25028.91036572 .00000045 00000+0 00000+0 0 9999
L22 27540 90.7903 10.4427 8616023 275.4380 340.9906 0.37573084 24735



Live tracking and technical data element details for INTEGRAL (NORAD 27540). INTEGRAL can be tracked NOW for your location showing map with azimuth and elevation plus other details from your city location.







IsCatalogInMostPopularTable: catalog: 27540, numindb: 503
Update: records affected: 1



GetName: 27540 INTEGRAL

Hit Count: updated at: Thu, 15 May 2025 10:46:59 GMT